Accueil
METAR-TAF:

METAR-TAF

Aéroports :

Monte Malanotte

Prato Nevoso, Italie

latitude: 44-15N, longitude: 007-48E, altitude: 1741 m

Observation

Le bulletin a été fait il y a 49 minutes, à 16:55 UTC
Vent 6 kt de est/nord-est
Température 21°C
Humidité 69%
Pression 1020 hPa
Visibilité: 5000 m
brume

METAR: LIMY 281655Z 06006KT 5000 BR NSC 21/15 Q1020 RMK BKN SCT090 SCT190 VAL FOSCHIA VIS MIN 4000W

Heure: 19:44 (17:44 UTC)


TAF: absent

Observations et prévisions météorologiques de plus de 4000 aéroports (messages METAR et TAF).

Les stations disponibles sont représentées par des disques jaunes et rouges sur la carte.

Passer la souris dessus pour voir le nom de la station.

Cliquer dessus pour voir les observations et prévisions météorologiques.

Pour changer de carte: cliquez sur les boutons verts avec une croix noire pour zoomer, sur le bouton vert avec un tiret pour effectuer un zoom arrière, ou sur les flèches vertes pour les cartes adjacentes.


METAR-TAF: